FW93366 Weather Reports


time (UTC)temp
C
wind
direction
speed
KPH
gust
KPH
rain 1hr
cm
rain 24hr
cm
rain mn
cm
humidity
%
barometer
mb
20260504194540 12 348 3.2 24.1 0.00 0.10 0.03 69 1012.2
20260504193049 12 311 8.0 17.7 0.00 0.10 0.03 66 1012.2
20260504191542 12 341 6.4 12.9 0.00 0.10 0.03 64 1012.1
20260504190107 12 212 12.9 22.5 0.00 0.10 0.03 63 1012.1
20260504184544 13 244 8.0 20.9 0.00 0.10 0.03 61 1012.1
20260504183040 12 181 3.2 9.7 0.00 0.10 0.03 61 1012.1
20260504181544 11 155 1.6 6.4 0.00 0.10 0.03 65 1012.0
20260504180040 11 174 4.8 11.3 0.00 0.10 0.03 67 1012.4
20260504174537 10 184 6.4 17.7 0.00 0.10 0.03 73 1012.3
20260504173040 10 150 6.4 19.3 0.00 0.10 0.03 78 1012.5
20260504171539 10 201 8.0 19.3 0.00 0.10 0.03 72 1012.2
20260504081545 7 0 0.0 1.6 0.00 0.08 0.00 85 1012.6
20260504050116 10 0 0.0 0.0 0.00 0.08 0.08 77 1013.5
20260504044550 10 0 0.0 6.4 0.00 0.08 0.08 77 1013.5
20260504043042 10 0 0.0 4.8 0.00 0.08 0.08 77 1013.4
20260504041540 10 0 0.0 3.2 0.00 0.08 0.08 77 1013.4
20260504040046 10 0 0.0 3.2 0.00 0.08 0.08 77 1013.3
20260504034549 10 0 0.0 1.6 0.00 0.08 0.08 77 1013.1
20260504033054 10 0 0.0 3.2 0.00 0.08 0.08 75 1013.0
20260504031557 10 178 3.2 9.7 0.00 0.08 0.08 75 1012.8
20260504030043 11 0 1.6 4.8 0.00 0.08 0.08 71 1012.8
20260504024542 11 0 0.0 4.8 0.00 0.43 0.08 69 1012.8
20260504023046 11 0 0.0 6.4 0.00 0.43 0.08 66 1012.8
20260504021542 12 0 0.0 6.4 0.00 0.43 0.08 64 1012.5
20260504020040 12 0 0.0 8.0 0.00 0.43 0.08 65 1012.6
20260504014554 12 0 0.0 3.2 0.00 0.43 0.08 60 1012.9
20260504013048 12 0 0.0 0.0 0.00 0.43 0.08 60 1012.9
20260504011548 12 0 0.0 8.0 0.00 0.43 0.08 63 1013.1
20260504010053 12 182 4.8 14.5 0.00 0.43 0.08 66 1013.1
20260504004541 12 193 3.2 14.5 0.00 0.43 0.08 74 1013.1
20260504003042 12 0 0.0 3.2 0.00 0.43 0.08 74 1013.1
20260504001548 11 24 0.0 9.7 0.03 0.43 0.08 75 1012.8
20260504000049 10 28 1.6 6.4 0.03 0.43 0.08 78 1013.1
20260503234543 10 0 0.0 11.3 0.03 0.43 0.08 78 1013.2
20260503233048 10 238 6.4 12.9 0.03 0.43 0.08 76 1013.9
20260503231544 11 0 0.0 6.4 0.00 0.41 0.05 77 1014.5
20260503230048 11 0 0.0 12.9 0.00 0.41 0.05 74 1014.1
20260503224546 11 150 1.6 8.0 0.03 0.41 0.05 72 1014.1
20260503223042 10 178 8.0 24.1 0.03 0.41 0.05 72 1013.9
20260503221549 9 180 11.3 29.0 0.05 0.41 0.05 75 1014.1
20260503220058 10 196 8.0 29.0 0.05 0.41 0.05 73 1014.4
20260503214544 10 193 12.9 38.6 0.03 0.38 0.03 76 1014.8
20260503213040 9 172 25.7 46.7 0.03 0.38 0.03 76 1014.1
20260503211548 10 175 27.4 59.5 0.00 0.36 0.00 73 1013.8
20260503210055 14 144 33.8 54.7 0.00 0.36 0.00 48 1012.2
20260503204558 17 190 12.9 32.2 0.00 0.36 0.00 41 1011.5
20260503203059 17 221 6.4 19.3 0.00 0.36 0.00 38 1011.3
20260503201549 17 229 6.4 16.1 0.00 0.36 0.00 45 1011.5
20260503200049 17 186 6.4 17.7 0.00 0.36 0.00 47 1011.8